| time (UTC) | temp F | wind direction | speed knots | gust knots | rain 1hr in | rain 24hr in | rain mn in | humidity % | barometer mb |
| 20260906065501 | 81 | 186 | 0.0 | 0.9 | 0.00 | 0.01 | 0.00 | 82 | 1011.8 |
| 20260906065006 | 81 | 186 | 0.0 | 1.7 | 0.00 | 0.01 | 0.00 | 83 | 1011.8 |
| 20260906064603 | 81 | 181 | 0.0 | 1.7 | 0.00 | 0.01 | 0.00 | 83 | 1011.8 |
| 20260906064005 | 81 | 99 | 0.0 | 0.0 | 0.00 | 0.01 | 0.00 | 83 | 1011.6 |
| 20260906063511 | 81 | 99 | 0.0 | 0.0 | 0.00 | 0.01 | 0.00 | 83 | 1011.7 |
| 20260906063018 | 81 | 99 | 0.0 | 0.0 | 0.00 | 0.01 | 0.00 | 83 | 1011.8 |
| 20260906062526 | 81 | 99 | 0.0 | 0.0 | 0.00 | 0.01 | 0.00 | 83 | 1011.8 |
| 20260906062028 | 81 | 99 | 0.0 | 0.0 | 0.00 | 0.01 | 0.00 | 82 | 1011.9 |
| 20260906061539 | 81 | 99 | 0.0 | 0.0 | 0.00 | 0.01 | 0.00 | 82 | 1012.0 |
| 20260906061041 | 82 | 99 | 0.0 | 0.0 | 0.00 | 0.01 | 0.00 | 82 | 1012.0 |
| 20260906060552 | 82 | 99 | 0.0 | 0.0 | 0.00 | 0.01 | 0.00 | 81 | 1012.0 |
| 20260906060056 | 82 | 99 | 0.0 | 0.0 | 0.00 | 0.01 | 0.00 | 81 | 1012.1 |
| 20260906055607 | 82 | 99 | 0.0 | 0.0 | 0.00 | 0.01 | 0.00 | 81 | 1012.0 |
| 20260906055005 | 82 | 99 | 0.0 | 0.0 | 0.00 | 0.01 | 0.00 | 81 | 1012.0 |
| 20260906054515 | 82 | 99 | 0.0 | 0.0 | 0.00 | 0.01 | 0.00 | 81 | 1012.0 |
| 20260906054019 | 82 | 99 | 0.0 | 0.0 | 0.00 | 0.01 | 0.00 | 81 | 1012.0 |
| 20260906053527 | 82 | 99 | 0.0 | 0.0 | 0.00 | 0.01 | 0.00 | 81 | 1012.0 |
| 20260906053033 | 82 | 99 | 0.0 | 0.0 | 0.00 | 0.01 | 0.00 | 81 | 1011.9 |
| 20260906052540 | 82 | 99 | 0.0 | 0.0 | 0.00 | 0.01 | 0.00 | 81 | 1011.9 |
| 20260906052047 | 82 | 99 | 0.0 | 0.0 | 0.00 | 0.01 | 0.00 | 81 | 1012.0 |
| 20260906051555 | 82 | 99 | 0.0 | 0.9 | 0.00 | 0.01 | 0.00 | 81 | 1011.8 |
| 20260906051102 | 82 | 113 | 0.0 | 0.0 | 0.00 | 0.01 | 0.00 | 80 | 1011.8 |
| 20260906050504 | 82 | 113 | 0.0 | 0.9 | 0.00 | 0.01 | 0.01 | 80 | 1011.9 |
| 20260906050011 | 82 | 113 | 0.0 | 0.9 | 0.00 | 0.01 | 0.01 | 80 | 1011.9 |
| 20260906045501 | 83 | 43 | 0.0 | 0.9 | 0.00 | 0.01 | 0.01 | 80 | 1011.8 |
| 20260906045008 | 83 | 40 | 0.0 | 0.0 | 0.00 | 0.01 | 0.01 | 80 | 1011.8 |
| 20260906044516 | 83 | 40 | 0.0 | 0.0 | 0.00 | 0.01 | 0.01 | 79 | 1011.8 |
| 20260906044015 | 83 | 40 | 0.0 | 0.0 | 0.00 | 0.01 | 0.01 | 79 | 1011.7 |
| 20260906043527 | 83 | 40 | 0.0 | 0.0 | 0.00 | 0.01 | 0.01 | 79 | 1011.7 |
| 20260906043029 | 83 | 40 | 0.0 | 0.0 | 0.00 | 0.01 | 0.01 | 79 | 1011.7 |
| 20260906042537 | 83 | 40 | 0.0 | 0.0 | 0.00 | 0.01 | 0.01 | 78 | 1011.8 |
| 20260906042042 | 83 | 40 | 0.0 | 0.0 | 0.00 | 0.01 | 0.01 | 78 | 1011.7 |
| 20260906041550 | 83 | 40 | 0.0 | 0.0 | 0.00 | 0.01 | 0.01 | 78 | 1011.8 |
| 20260906041056 | 84 | 40 | 0.0 | 0.0 | 0.00 | 0.01 | 0.01 | 77 | 1011.7 |
| 20260906040604 | 84 | 40 | 0.0 | 0.0 | 0.00 | 0.01 | 0.01 | 77 | 1011.7 |
| 20260906040007 | 84 | 40 | 0.0 | 0.0 | 0.00 | 0.01 | 0.01 | 76 | 1011.7 |
| 20260906035514 | 84 | 40 | 0.0 | 0.0 | 0.00 | 0.01 | 0.01 | 76 | 1011.7 |
| 20260906035015 | 84 | 40 | 0.0 | 0.0 | 0.00 | 0.01 | 0.01 | 76 | 1011.7 |
| 20260906034523 | 84 | 40 | 0.0 | 0.0 | 0.00 | 0.01 | 0.01 | 76 | 1011.7 |
| 20260906034028 | 84 | 40 | 0.0 | 0.0 | 0.00 | 0.01 | 0.01 | 75 | 1011.7 |
| 20260906033535 | 84 | 40 | 0.0 | 0.9 | 0.00 | 0.01 | 0.01 | 75 | 1011.8 |
| 20260906033045 | 85 | 40 | 0.0 | 0.9 | 0.00 | 0.01 | 0.01 | 75 | 1011.7 |
| 20260906032551 | 85 | 40 | 0.0 | 0.0 | 0.00 | 0.01 | 0.01 | 75 | 1011.7 |
| 20260906032057 | 85 | 40 | 0.0 | 0.0 | 0.00 | 0.01 | 0.01 | 75 | 1011.7 |
| 20260906031605 | 85 | 40 | 0.0 | 0.0 | 0.00 | 0.01 | 0.01 | 74 | 1011.6 |
| 20260906031052 | 85 | 40 | 0.0 | 0.0 | 0.00 | 0.01 | 0.01 | 74 | 1011.7 |
| 20260906030544 | 85 | 40 | 0.0 | 0.0 | 0.00 | 0.01 | 0.01 | 73 | 1011.5 |
| 20260906030053 | 85 | 40 | 0.0 | 0.0 | 0.00 | 0.01 | 0.01 | 73 | 1011.7 |
| 20260906025542 | 85 | 40 | 0.0 | 0.0 | 0.00 | 0.01 | 0.01 | 73 | 1011.7 |
| 20260906025050 | 85 | 40 | 0.0 | 0.9 | 0.00 | 0.01 | 0.01 | 73 | 1011.6 |
| 20260906024602 | 86 | 40 | 0.0 | 0.9 | 0.00 | 0.01 | 0.01 | 72 | 1011.7 |
| 20260906024002 | 86 | 40 | 0.0 | 0.0 | 0.00 | 0.01 | 0.01 | 71 | 1011.7 |
| 20260906023509 | 86 | 40 | 0.0 | 0.0 | 0.00 | 0.01 | 0.01 | 71 | 1011.6 |
| 20260906023102 | 86 | 40 | 0.0 | 0.0 | 0.00 | 0.01 | 0.01 | 71 | 1011.7 |
| 20260906022505 | 86 | 40 | 0.0 | 0.9 | 0.00 | 0.01 | 0.01 | 70 | 1011.6 |
| 20260906022011 | 87 | 40 | 0.0 | 0.9 | 0.00 | 0.01 | 0.01 | 70 | 1011.5 |
| 20260906021516 | 87 | 40 | 0.0 | 0.0 | 0.00 | 0.01 | 0.01 | 69 | 1011.5 |
| 20260906021021 | 87 | 40 | 0.0 | 0.0 | 0.00 | 0.01 | 0.01 | 69 | 1011.5 |
| 20260906020529 | 87 | 40 | 0.0 | 0.0 | 0.00 | 0.03 | 0.01 | 68 | 1011.4 |
| 20260906020048 | 87 | 40 | 0.0 | 0.0 | 0.00 | 0.03 | 0.01 | 67 | 1011.2 |
| 20260906015542 | 88 | 40 | 0.0 | 0.0 | 0.00 | 0.03 | 0.01 | 67 | 1011.2 |
| 20260906015050 | 88 | 40 | 0.0 | 0.0 | 0.00 | 0.03 | 0.01 | 66 | 1011.2 |
| 20260906014558 | 88 | 40 | 0.0 | 0.0 | 0.00 | 0.03 | 0.01 | 66 | 1011.1 |
| 20260906014103 | 88 | 40 | 0.0 | 0.0 | 0.00 | 0.03 | 0.01 | 65 | 1011.1 |
| 20260906013551 | 88 | 40 | 0.0 | 0.9 | 0.00 | 0.03 | 0.01 | 65 | 1011.0 |
| 20260906013100 | 89 | 40 | 0.0 | 0.9 | 0.00 | 0.03 | 0.01 | 65 | 1011.0 |
| 20260906012503 | 89 | 40 | 0.0 | 0.9 | 0.00 | 0.03 | 0.01 | 64 | 1011.0 |
| 20260906012057 | 89 | 42 | 0.0 | 0.9 | 0.00 | 0.03 | 0.01 | 64 | 1010.9 |
| 20260906011550 | 89 | 68 | 0.0 | 0.9 | 0.00 | 0.03 | 0.01 | 64 | 1010.8 |
| 20260906011058 | 90 | 68 | 0.0 | 0.0 | 0.00 | 0.03 | 0.01 | 63 | 1010.7 |
| 20260906010604 | 90 | 68 | 0.0 | 0.0 | 0.00 | 0.03 | 0.01 | 62 | 1010.7 |
| 20260906010005 | 90 | 68 | 0.0 | 0.0 | 0.00 | 0.03 | 0.01 | 62 | 1010.7 |
| 20260906005511 | 91 | 68 | 0.0 | 0.0 | 0.00 | 0.03 | 0.01 | 61 | 1010.6 |
| 20260906005018 | 91 | 68 | 0.0 | 0.0 | 0.00 | 0.03 | 0.01 | 61 | 1010.7 |
| 20260906004524 | 91 | 68 | 0.0 | 0.0 | 0.00 | 0.03 | 0.01 | 60 | 1010.7 |
| 20260906004029 | 92 | 68 | 0.0 | 0.9 | 0.00 | 0.03 | 0.01 | 59 | 1010.6 |
| 20260906003536 | 92 | 68 | 0.0 | 0.9 | 0.00 | 0.03 | 0.01 | 60 | 1010.7 |
| 20260906003046 | 93 | 76 | 0.0 | 0.9 | 0.00 | 0.03 | 0.01 | 58 | 1010.5 |
| 20260906002553 | 93 | 76 | 0.0 | 0.0 | 0.00 | 0.03 | 0.01 | 57 | 1010.6 |
| 20260906002100 | 94 | 76 | 0.0 | 0.0 | 0.00 | 0.03 | 0.01 | 56 | 1010.6 |
| 20260906001503 | 94 | 76 | 0.0 | 0.0 | 0.00 | 0.03 | 0.01 | 55 | 1010.5 |
| 20260906001010 | 94 | 76 | 0.0 | 0.0 | 0.00 | 0.03 | 0.01 | 54 | 1010.6 |
| 20260906000517 | 95 | 76 | 0.0 | 0.0 | 0.00 | 0.03 | 0.01 | 53 | 1010.6 |
| 20260906000025 | 95 | 76 | 0.0 | 0.0 | 0.00 | 0.03 | 0.01 | 52 | 1010.7 |
| 20260905235531 | 96 | 76 | 0.0 | 0.9 | 0.00 | 0.03 | 0.01 | 51 | 1010.7 |
| 20260905235038 | 96 | 76 | 0.0 | 2.6 | 0.00 | 0.03 | 0.01 | 51 | 1010.7 |
| 20260905234546 | 96 | 72 | 0.0 | 2.6 | 0.00 | 0.03 | 0.01 | 50 | 1010.6 |
| 20260905234053 | 96 | 75 | 0.0 | 1.7 | 0.00 | 0.03 | 0.01 | 50 | 1010.7 |
| 20260905233600 | 97 | 66 | 0.9 | 1.7 | 0.00 | 0.03 | 0.01 | 50 | 1010.7 |
| 20260905233004 | 97 | 94 | 0.0 | 2.6 | 0.00 | 0.03 | 0.01 | 50 | 1010.6 |
| 20260905232513 | 97 | 99 | 0.0 | 4.3 | 0.00 | 0.03 | 0.01 | 50 | 1010.7 |
| 20260905232015 | 97 | 72 | 0.0 | 5.2 | 0.00 | 0.03 | 0.01 | 50 | 1010.7 |
| 20260905231522 | 97 | 51 | 1.7 | 5.2 | 0.00 | 0.03 | 0.01 | 50 | 1010.7 |
| 20260905231028 | 97 | 71 | 0.9 | 6.1 | 0.00 | 0.03 | 0.01 | 49 | 1010.8 |
| 20260905230534 | 97 | 41 | 0.9 | 6.1 | 0.00 | 0.03 | 0.01 | 49 | 1010.8 |
| 20260905230040 | 98 | 55 | 1.7 | 4.3 | 0.00 | 0.03 | 0.01 | 49 | 1010.8 |
| 20260905225547 | 98 | 70 | 1.7 | 4.3 | 0.00 | 0.03 | 0.01 | 49 | 1010.8 |
| 20260905225054 | 98 | 69 | 0.0 | 5.2 | 0.00 | 0.03 | 0.01 | 49 | 1010.6 |
| 20260905224610 | 98 | 72 | 0.9 | 6.1 | 0.00 | 0.03 | 0.01 | 49 | 1010.7 |
| 20260905224004 | 98 | 82 | 2.6 | 6.1 | 0.00 | 0.03 | 0.01 | 49 | 1010.7 |
| 20260905223601 | 98 | 103 | 2.6 | 7.0 | 0.00 | 0.03 | 0.01 | 49 | 1010.8 |
| 20260905223015 | 99 | 80 | 2.6 | 7.0 | 0.00 | 0.03 | 0.01 | 49 | 1010.7 |
| 20260905222513 | 98 | 103 | 0.9 | 7.8 | 0.00 | 0.03 | 0.01 | 51 | 1010.8 |
| 20260905222104 | 98 | 15 | 3.5 | 7.8 | 0.00 | 0.03 | 0.01 | 50 | 1010.8 |
| 20260905221512 | 99 | 63 | 2.6 | 7.8 | 0.00 | 0.03 | 0.01 | 51 | 1010.8 |
| 20260905221012 | 99 | 98 | 3.5 | 7.8 | 0.00 | 0.03 | 0.01 | 50 | 1010.8 |
| 20260905220518 | 99 | 67 | 3.5 | 7.0 | 0.00 | 0.03 | 0.01 | 49 | 1010.8 |
| 20260905220027 | 99 | 56 | 2.6 | 7.0 | 0.00 | 0.03 | 0.01 | 49 | 1010.8 |
| 20260905215532 | 100 | 68 | 2.6 | 6.1 | 0.00 | 0.03 | 0.01 | 48 | 1010.9 |
| 20260905215038 | 100 | 84 | 0.9 | 4.3 | 0.00 | 0.03 | 0.01 | 46 | 1010.9 |
| 20260905214545 | 100 | 83 | 1.7 | 7.0 | 0.00 | 0.03 | 0.01 | 46 | 1010.8 |
| 20260905214050 | 101 | 92 | 1.7 | 7.0 | 0.00 | 0.03 | 0.01 | 46 | 1010.8 |
| 20260905213557 | 100 | 79 | 0.0 | 4.3 | 0.00 | 0.03 | 0.01 | 47 | 1010.8 |
| 20260905213110 | 100 | 84 | 0.9 | 6.1 | 0.00 | 0.03 | 0.01 | 47 | 1010.9 |
| 20260905212504 | 99 | 100 | 2.6 | 6.1 | 0.00 | 0.03 | 0.01 | 46 | 1011.0 |
| 20260905212012 | 99 | 79 | 3.5 | 7.8 | 0.00 | 0.03 | 0.01 | 47 | 1011.1 |
| 20260905211535 | 99 | 127 | 2.6 | 7.8 | 0.00 | 0.03 | 0.01 | 47 | 1011.0 |
| 20260905211026 | 99 | 74 | 3.5 | 8.7 | 0.00 | 0.03 | 0.01 | 47 | 1011.0 |
| 20260905210532 | 100 | 94 | 5.2 | 8.7 | 0.00 | 0.03 | 0.01 | 48 | 1011.1 |
| 20260905210057 | 100 | 58 | 2.6 | 6.1 | 0.00 | 0.03 | 0.01 | 47 | 1011.2 |
| 20260905205549 | 100 | 70 | 2.6 | 7.0 | 0.00 | 0.03 | 0.01 | 47 | 1011.2 |
| 20260905205056 | 100 | 82 | 2.6 | 7.8 | 0.00 | 0.03 | 0.01 | 47 | 1011.1 |
| 20260905204605 | 99 | 68 | 3.5 | 7.8 | 0.00 | 0.03 | 0.01 | 47 | 1011.2 |
| 20260905204007 | 98 | 104 | 4.3 | 8.7 | 0.00 | 0.03 | 0.01 | 48 | 1011.2 |
| 20260905203514 | 99 | 73 | 3.5 | 8.7 | 0.00 | 0.03 | 0.01 | 48 | 1011.4 |
| 20260905203022 | 99 | 65 | 2.6 | 7.0 | 0.00 | 0.03 | 0.01 | 48 | 1011.5 |
| 20260905202529 | 100 | 77 | 3.5 | 6.1 | 0.00 | 0.03 | 0.01 | 47 | 1011.6 |
| 20260905202036 | 101 | 79 | 1.7 | 5.2 | 0.00 | 0.03 | 0.01 | 46 | 1011.7 |
| 20260905201548 | 101 | 59 | 0.0 | 2.6 | 0.00 | 0.03 | 0.01 | 44 | 1011.7 |
| 20260905201051 | 101 | 117 | 0.9 | 6.1 | 0.00 | 0.03 | 0.01 | 46 | 1011.8 |
| 20260905200558 | 100 | 75 | 1.7 | 7.0 | 0.00 | 0.03 | 0.01 | 45 | 1011.7 |
| 20260905200001 | 101 | 39 | 0.9 | 4.3 | 0.00 | 0.03 | 0.01 | 45 | 1011.9 |
| 20260905195515 | 100 | 84 | 1.7 | 4.3 | 0.00 | 0.03 | 0.01 | 45 | 1012.0 |
| 20260905195018 | 99 | 123 | 0.9 | 7.0 | 0.00 | 0.03 | 0.01 | 48 | 1012.1 |
| 20260905194522 | 99 | 105 | 2.6 | 7.0 | 0.00 | 0.03 | 0.01 | 47 | 1012.1 |
| 20260905194026 | 99 | 278 | 1.7 | 6.1 | 0.00 | 0.03 | 0.01 | 46 | 1012.2 |
| 20260905193534 | 99 | 91 | 2.6 | 6.1 | 0.00 | 0.03 | 0.01 | 47 | 1012.3 |
| 20260905193039 | 99 | 68 | 0.9 | 5.2 | 0.00 | 0.03 | 0.01 | 48 | 1012.4 |
| 20260905192547 | 100 | 326 | 0.9 | 8.7 | 0.00 | 0.03 | 0.01 | 47 | 1012.4 |
| 20260905192056 | 101 | 117 | 0.9 | 8.7 | 0.00 | 0.03 | 0.01 | 46 | 1012.4 |
| 20260905191600 | 101 | 245 | 0.9 | 5.2 | 0.00 | 0.03 | 0.01 | 48 | 1012.4 |
| 20260905191002 | 100 | 105 | 0.9 | 7.0 | 0.00 | 0.03 | 0.01 | 48 | 1012.5 |
| 20260905190557 | 100 | 89 | 0.0 | 8.7 | 0.00 | 0.04 | 0.01 | 48 | 1012.6 |
| 20260905190002 | 99 | 77 | 2.6 | 8.7 | 0.00 | 0.04 | 0.01 | 48 | 1012.7 |
| 20260905185507 | 98 | 95 | 0.9 | 7.8 | 0.00 | 0.04 | 0.01 | 51 | 1012.8 |
| 20260905185015 | 99 | 134 | 2.6 | 6.1 | 0.00 | 0.04 | 0.01 | 49 | 1012.8 |
| 20260905184531 | 99 | 94 | 2.6 | 6.1 | 0.00 | 0.04 | 0.01 | 50 | 1012.8 |
| 20260905184028 | 99 | 85 | 0.9 | 5.2 | 0.00 | 0.04 | 0.01 | 51 | 1012.9 |
| 20260905183532 | 98 | 243 | 0.9 | 5.2 | 0.00 | 0.04 | 0.01 | 51 | 1012.8 |
| 20260905183040 | 98 | 297 | 0.0 | 7.0 | 0.00 | 0.04 | 0.01 | 51 | 1013.0 |
| 20260905182547 | 99 | 79 | 2.6 | 7.0 | 0.00 | 0.04 | 0.01 | 51 | 1013.1 |
| 20260905182054 | 98 | 117 | 0.0 | 6.1 | 0.00 | 0.04 | 0.01 | 52 | 1013.1 |
| 20260905181601 | 99 | 76 | 1.7 | 4.3 | 0.00 | 0.04 | 0.01 | 51 | 1013.1 |
| 20260905181003 | 99 | 352 | 1.7 | 4.3 | 0.00 | 0.04 | 0.01 | 51 | 1013.1 |
| 20260905180559 | 99 | 319 | 0.9 | 4.3 | 0.00 | 0.04 | 0.01 | 52 | 1013.2 |
| 20260905180112 | 98 | 345 | 0.0 | 3.5 | 0.00 | 0.04 | 0.01 | 52 | 1013.2 |
| 20260905175506 | 98 | 270 | 0.0 | 3.5 | 0.00 | 0.04 | 0.01 | 52 | 1013.3 |
| 20260905175055 | 98 | 349 | 0.9 | 2.6 | 0.00 | 0.04 | 0.01 | 53 | 1013.3 |
| 20260905174607 | 97 | 34 | 0.0 | 6.1 | 0.00 | 0.04 | 0.01 | 53 | 1013.4 |
| 20260905174004 | 98 | 297 | 1.7 | 6.1 | 0.00 | 0.04 | 0.01 | 53 | 1013.4 |
| 20260905173601 | 98 | 293 | 0.9 | 7.0 | 0.00 | 0.04 | 0.01 | 52 | 1013.4 |
| 20260905173004 | 98 | 266 | 3.5 | 7.0 | 0.00 | 0.04 | 0.01 | 53 | 1013.5 |
| 20260905172557 | 97 | 320 | 0.9 | 4.3 | 0.00 | 0.04 | 0.01 | 54 | 1013.4 |
| 20260905172045 | 97 | 311 | 1.7 | 4.3 | 0.00 | 0.04 | 0.01 | 54 | 1013.5 |
| 20260905171603 | 98 | 310 | 1.7 | 5.2 | 0.00 | 0.04 | 0.01 | 53 | 1013.6 |
| 20260905171057 | 97 | 65 | 0.9 | 6.1 | 0.00 | 0.04 | 0.01 | 54 | 1013.8 |
| 20260905170501 | 98 | 75 | 0.0 | 4.3 | 0.00 | 0.04 | 0.01 | 54 | 1013.7 |
| 20260905170007 | 97 | 276 | 0.9 | 5.2 | 0.00 | 0.04 | 0.01 | 56 | 1013.8 |
| 20260905165603 | 96 | 321 | 0.9 | 6.1 | 0.00 | 0.04 | 0.01 | 55 | 1013.8 |
| 20260905165005 | 96 | 74 | 3.5 | 6.1 | 0.00 | 0.04 | 0.01 | 55 | 1013.9 |
| 20260905164513 | 96 | 303 | 0.9 | 4.3 | 0.00 | 0.04 | 0.01 | 57 | 1014.0 |
| 20260905164013 | 96 | 342 | 1.7 | 4.3 | 0.00 | 0.04 | 0.01 | 58 | 1014.1 |
| 20260905163520 | 96 | 316 | 0.9 | 3.5 | 0.00 | 0.04 | 0.01 | 58 | 1014.2 |
| 20260905163027 | 95 | 74 | 0.0 | 3.5 | 0.00 | 0.04 | 0.01 | 58 | 1014.1 |
| 20260905162536 | 95 | 122 | 0.0 | 3.5 | 0.00 | 0.04 | 0.01 | 58 | 1014.2 |
| 20260905162039 | 94 | 96 | 0.9 | 5.2 | 0.00 | 0.04 | 0.01 | 60 | 1014.3 |
| 20260905161546 | 94 | 85 | 2.6 | 6.1 | 0.00 | 0.04 | 0.01 | 61 | 1014.3 |
| 20260905161052 | 94 | 107 | 2.6 | 6.1 | 0.00 | 0.04 | 0.01 | 61 | 1014.3 |
| 20260905160559 | 93 | 286 | 0.9 | 6.1 | 0.00 | 0.04 | 0.01 | 64 | 1014.2 |
| 20260905155554 | 93 | 89 | 1.7 | 6.1 | 0.00 | 0.04 | 0.01 | 62 | 1014.4 |
| 20260905155101 | 93 | 328 | 0.0 | 3.5 | 0.00 | 0.04 | 0.01 | 63 | 1014.4 |
| 20260905154504 | 92 | 84 | 0.9 | 3.5 | 0.00 | 0.04 | 0.01 | 63 | 1014.4 |
| 20260905154103 | 92 | 100 | 0.9 | 2.6 | 0.00 | 0.04 | 0.01 | 64 | 1014.4 |
| 20260905153502 | 91 | 91 | 0.0 | 2.6 | 0.00 | 0.04 | 0.01 | 65 | 1014.3 |
| 20260905153056 | 91 | 25 | 0.9 | 3.5 | 0.00 | 0.04 | 0.01 | 65 | 1014.4 |
| 20260905152602 | 91 | 60 | 0.9 | 3.5 | 0.00 | 0.04 | 0.01 | 66 | 1014.4 |
| 20260905152004 | 91 | 70 | 0.9 | 3.5 | 0.00 | 0.04 | 0.01 | 64 | 1014.5 |
| 20260905151559 | 91 | 101 | 0.0 | 3.5 | 0.00 | 0.04 | 0.01 | 64 | 1014.5 |
| 20260905151050 | 90 | 336 | 0.9 | 3.5 | 0.00 | 0.04 | 0.01 | 66 | 1014.5 |
| 20260905150558 | 90 | 301 | 0.0 | 2.6 | 0.00 | 0.04 | 0.01 | 67 | 1014.5 |
| 20260905150002 | 90 | 298 | 0.9 | 2.6 | 0.00 | 0.04 | 0.01 | 66 | 1014.5 |
| 20260905145509 | 90 | 321 | 0.0 | 1.7 | 0.00 | 0.04 | 0.01 | 67 | 1014.6 |
| 20260905145019 | 89 | 61 | 0.0 | 1.7 | 0.00 | 0.04 | 0.01 | 67 | 1014.5 |
| 20260905144536 | 89 | 307 | 0.0 | 2.6 | 0.00 | 0.04 | 0.01 | 67 | 1014.4 |
| 20260905144026 | 89 | 359 | 0.0 | 2.6 | 0.00 | 0.04 | 0.01 | 68 | 1014.4 |
| 20260905143534 | 89 | 78 | 0.9 | 2.6 | 0.00 | 0.04 | 0.01 | 69 | 1014.4 |
| 20260905143041 | 88 | 311 | 0.0 | 1.7 | 0.00 | 0.04 | 0.01 | 70 | 1014.4 |
| 20260905142548 | 88 | 321 | 0.0 | 1.7 | 0.00 | 0.04 | 0.01 | 70 | 1014.4 |
| 20260905142055 | 88 | 339 | 0.0 | 2.6 | 0.00 | 0.04 | 0.01 | 69 | 1014.5 |
| 20260905141602 | 87 | 208 | 0.0 | 2.6 | 0.00 | 0.04 | 0.01 | 71 | 1014.4 |
| 20260905141006 | 87 | 330 | 0.0 | 0.9 | 0.00 | 0.04 | 0.01 | 71 | 1014.4 |
| 20260905140511 | 87 | 323 | 0.0 | 0.0 | 0.00 | 0.04 | 0.01 | 71 | 1014.4 |
| 20260905140016 | 87 | 233 | 0.0 | 0.9 | 0.00 | 0.04 | 0.01 | 73 | 1014.3 |
| 20260905135521 | 86 | 240 | 0.0 | 0.9 | 0.00 | 0.04 | 0.01 | 73 | 1014.3 |
| 20260905135002 | 86 | 184 | 0.0 | 0.0 | 0.00 | 0.04 | 0.01 | 74 | 1014.3 |
| 20260905134510 | 86 | 161 | 0.0 | 0.9 | 0.00 | 0.04 | 0.01 | 74 | 1014.3 |
| 20260905134016 | 85 | 160 | 0.0 | 0.9 | 0.00 | 0.04 | 0.01 | 74 | 1014.4 |
| 20260905133524 | 85 | 238 | 0.0 | 0.9 | 0.00 | 0.04 | 0.01 | 75 | 1014.4 |
| 20260905133030 | 85 | 255 | 0.0 | 1.7 | 0.00 | 0.04 | 0.01 | 76 | 1014.4 |
| 20260905132539 | 85 | 300 | 0.0 | 1.7 | 0.00 | 0.04 | 0.01 | 75 | 1014.3 |
| 20260905132045 | 84 | 201 | 0.0 | 2.6 | 0.00 | 0.04 | 0.01 | 75 | 1014.2 |
| 20260905131555 | 84 | 160 | 0.0 | 2.6 | 0.00 | 0.04 | 0.01 | 75 | 1014.3 |
| 20260905131058 | 84 | 129 | 0.0 | 1.7 | 0.00 | 0.04 | 0.01 | 76 | 1014.2 |
| 20260905130605 | 83 | 186 | 0.0 | 0.0 | 0.00 | 0.04 | 0.01 | 78 | 1014.3 |
| 20260905130015 | 82 | 192 | 0.0 | 0.0 | 0.00 | 0.04 | 0.01 | 79 | 1014.3 |
| 20260905125604 | 82 | 198 | 0.0 | 0.0 | 0.00 | 0.04 | 0.01 | 79 | 1014.3 |
| 20260905125005 | 82 | 199 | 0.0 | 0.0 | 0.00 | 0.04 | 0.01 | 80 | 1014.3 |
| 20260905124514 | 81 | 199 | 0.0 | 0.0 | 0.00 | 0.04 | 0.01 | 82 | 1014.3 |
| 20260905124021 | 81 | 199 | 0.0 | 0.0 | 0.00 | 0.04 | 0.01 | 82 | 1014.3 |
| 20260905123524 | 81 | 199 | 0.0 | 0.0 | 0.00 | 0.04 | 0.01 | 82 | 1014.2 |
| 20260905123028 | 80 | 199 | 0.0 | 0.0 | 0.00 | 0.04 | 0.01 | 83 | 1014.1 |
| 20260905122537 | 80 | 199 | 0.0 | 0.0 | 0.00 | 0.04 | 0.01 | 84 | 1014.1 |
| 20260905122042 | 79 | 199 | 0.0 | 0.0 | 0.00 | 0.04 | 0.01 | 85 | 1014.1 |
| 20260905121548 | 78 | 199 | 0.0 | 0.0 | 0.00 | 0.04 | 0.01 | 86 | 1014.0 |
| 20260905121054 | 78 | 199 | 0.0 | 0.0 | 0.00 | 0.04 | 0.01 | 87 | 1014.0 |
| 20260905120602 | 78 | 199 | 0.0 | 0.0 | 0.00 | 0.04 | 0.01 | 87 | 1014.0 |
| 20260905120002 | 78 | 199 | 0.0 | 0.0 | 0.00 | 0.04 | 0.01 | 87 | 1014.0 |
| 20260905115558 | 78 | 199 | 0.0 | 0.0 | 0.00 | 0.04 | 0.01 | 87 | 1014.0 |
| 20260905115002 | 78 | 199 | 0.0 | 0.0 | 0.00 | 0.04 | 0.01 | 87 | 1014.0 |
| 20260905114510 | 78 | 199 | 0.0 | 0.0 | 0.00 | 0.04 | 0.01 | 87 | 1013.9 |
| 20260905114012 | 78 | 199 | 0.0 | 0.0 | 0.00 | 0.04 | 0.01 | 87 | 1013.8 |
| 20260905113526 | 78 | 199 | 0.0 | 0.0 | 0.00 | 0.04 | 0.01 | 87 | 1013.8 |
| 20260905113025 | 78 | 199 | 0.0 | 0.0 | 0.00 | 0.04 | 0.01 | 87 | 1013.6 |
| 20260905112531 | 78 | 199 | 0.0 | 0.0 | 0.00 | 0.04 | 0.01 | 87 | 1013.7 |
| 20260905112036 | 78 | 199 | 0.0 | 0.0 | 0.00 | 0.04 | 0.01 | 86 | 1013.7 |
| 20260905111544 | 78 | 199 | 0.0 | 0.0 | 0.00 | 0.04 | 0.01 | 86 | 1013.7 |
| 20260905111050 | 78 | 199 | 0.0 | 0.0 | 0.00 | 0.04 | 0.01 | 86 | 1013.6 |
| 20260905110540 | 78 | 199 | 0.0 | 0.0 | 0.00 | 0.04 | 0.01 | 86 | 1013.6 |
| 20260905110028 | 78 | 199 | 0.0 | 0.0 | 0.00 | 0.04 | 0.01 | 86 | 1013.6 |
| 20260905105536 | 78 | 199 | 0.0 | 0.0 | 0.00 | 0.04 | 0.01 | 86 | 1013.6 |
| 20260905105042 | 78 | 199 | 0.0 | 0.0 | 0.00 | 0.04 | 0.01 | 86 | 1013.6 |
| 20260905104551 | 78 | 199 | 0.0 | 0.0 | 0.00 | 0.04 | 0.01 | 85 | 1013.6 |
| 20260905104056 | 78 | 199 | 0.0 | 0.0 | 0.01 | 0.04 | 0.01 | 85 | 1013.6 |
| 20260905103600 | 78 | 199 | 0.0 | 0.0 | 0.01 | 0.04 | 0.01 | 85 | 1013.6 |
| 20260905103002 | 79 | 199 | 0.0 | 0.0 | 0.01 | 0.04 | 0.01 | 85 | 1013.5 |
| 20260905102600 | 79 | 199 | 0.0 | 0.0 | 0.01 | 0.04 | 0.01 | 84 | 1013.5 |
| 20260905102001 | 79 | 199 | 0.0 | 0.0 | 0.01 | 0.04 | 0.01 | 84 | 1013.4 |
| 20260905101509 | 79 | 199 | 0.0 | 0.0 | 0.01 | 0.04 | 0.01 | 85 | 1013.4 |
| 20260905101011 | 79 | 199 | 0.0 | 0.0 | 0.01 | 0.04 | 0.01 | 85 | 1013.4 |
| 20260905100518 | 79 | 199 | 0.0 | 0.0 | 0.01 | 0.04 | 0.01 | 85 | 1013.5 |
| 20260905100025 | 79 | 199 | 0.0 | 0.0 | 0.01 | 0.04 | 0.01 | 84 | 1013.5 |
| 20260905095531 | 79 | 199 | 0.0 | 0.0 | 0.01 | 0.04 | 0.01 | 84 | 1013.6 |
| 20260905095039 | 79 | 199 | 0.0 | 0.0 | 0.01 | 0.04 | 0.01 | 84 | 1013.5 |
| 20260905094600 | 79 | 199 | 0.0 | 0.0 | 0.01 | 0.04 | 0.01 | 84 | 1013.5 |
| 20260905094056 | 79 | 199 | 0.0 | 0.0 | 0.00 | 0.03 | 0.00 | 84 | 1013.5 |
| 20260905093544 | 79 | 199 | 0.0 | 0.0 | 0.00 | 0.03 | 0.00 | 84 | 1013.4 |
| 20260905093050 | 79 | 199 | 0.0 | 0.0 | 0.00 | 0.03 | 0.00 | 83 | 1013.4 |
| 20260905092558 | 79 | 199 | 0.0 | 0.0 | 0.00 | 0.03 | 0.00 | 83 | 1013.4 |
| 20260905092104 | 79 | 199 | 0.0 | 0.0 | 0.00 | 0.03 | 0.00 | 83 | 1013.4 |
| 20260905091606 | 79 | 199 | 0.0 | 0.0 | 0.00 | 0.03 | 0.00 | 83 | 1013.5 |
| 20260905091103 | 80 | 199 | 0.0 | 0.0 | 0.00 | 0.03 | 0.00 | 83 | 1013.5 |
| 20260905090506 | 80 | 199 | 0.0 | 0.0 | 0.00 | 0.04 | 0.00 | 82 | 1013.5 |
| 20260905090019 | 80 | 199 | 0.0 | 0.0 | 0.00 | 0.04 | 0.00 | 82 | 1013.4 |
| 20260905085520 | 80 | 199 | 0.0 | 0.0 | 0.00 | 0.04 | 0.00 | 82 | 1013.4 |
| 20260905085030 | 80 | 199 | 0.0 | 0.0 | 0.00 | 0.04 | 0.00 | 82 | 1013.4 |
| 20260905084540 | 80 | 199 | 0.0 | 0.0 | 0.00 | 0.04 | 0.00 | 82 | 1013.4 |
| 20260905084042 | 80 | 199 | 0.0 | 0.0 | 0.00 | 0.04 | 0.00 | 82 | 1013.3 |
| 20260905083550 | 80 | 199 | 0.0 | 0.0 | 0.00 | 0.04 | 0.00 | 82 | 1013.3 |
| 20260905083057 | 80 | 199 | 0.0 | 0.0 | 0.00 | 0.04 | 0.00 | 81 | 1013.4 |
| 20260905082606 | 80 | 199 | 0.0 | 0.0 | 0.00 | 0.04 | 0.00 | 82 | 1013.4 |
| 20260905082056 | 80 | 199 | 0.0 | 0.0 | 0.00 | 0.04 | 0.00 | 81 | 1013.5 |
| 20260905081553 | 80 | 199 | 0.0 | 0.0 | 0.00 | 0.04 | 0.00 | 81 | 1013.5 |
| 20260905081050 | 80 | 199 | 0.0 | 0.0 | 0.00 | 0.04 | 0.00 | 81 | 1013.5 |
| 20260905080544 | 80 | 199 | 0.0 | 0.0 | 0.00 | 0.04 | 0.00 | 80 | 1013.5 |
| 20260905080057 | 81 | 199 | 0.0 | 0.0 | 0.00 | 0.04 | 0.00 | 80 | 1013.5 |
| 20260905075559 | 81 | 199 | 0.0 | 0.0 | 0.00 | 0.04 | 0.00 | 80 | 1013.6 |
| 20260905075104 | 81 | 199 | 0.0 | 0.0 | 0.00 | 0.04 | 0.00 | 80 | 1013.6 |
| 20260905074507 | 81 | 199 | 0.0 | 0.0 | 0.00 | 0.04 | 0.00 | 79 | 1013.5 |
| 20260905074015 | 81 | 199 | 0.0 | 0.0 | 0.00 | 0.04 | 0.00 | 79 | 1013.5 |
| 20260905073522 | 81 | 199 | 0.0 | 0.0 | 0.00 | 0.04 | 0.00 | 79 | 1013.6 |
| 20260905073039 | 81 | 199 | 0.0 | 0.0 | 0.00 | 0.04 | 0.00 | 78 | 1013.5 |
| 20260905072536 | 82 | 199 | 0.0 | 0.0 | 0.00 | 0.04 | 0.00 | 78 | 1013.5 |
| 20260905072044 | 82 | 198 | 0.0 | 0.0 | 0.00 | 0.04 | 0.00 | 78 | 1013.6 |
| 20260905071559 | 82 | 199 | 0.0 | 0.0 | 0.00 | 0.04 | 0.00 | 78 | 1013.6 |
| 20260905071102 | 82 | 199 | 0.0 | 0.0 | 0.00 | 0.04 | 0.00 | 77 | 1013.6 |
| 20260905070504 | 82 | 199 | 0.0 | 0.0 | 0.00 | 0.04 | 0.00 | 77 | 1013.6 |
| 20260905070010 | 82 | 199 | 0.0 | 0.0 | 0.00 | 0.04 | 0.00 | 77 | 1013.6 |